Buies Creek, NC

11:23 AM EST on December 08, 2016 (GMT -0500)
Harnett County

Weather History for KHRJ - January, 2014

Change the Weather History Date:

Wednesday, January 1, 2014

  Actual Average Record
Temperature  
Mean Temperature 41 °F -  
Max Temperature 50 °F 56 °F 75 °F (1966)
Min Temperature 32 °F 37 °F 13 °F (1977)
Degree Days  
Heating Degree Days 24    
Moisture  
Dew Point 31 °F    
Average Humidity 72    
Maximum Humidity 99    
Minimum Humidity 32    
Precipitation  
Precipitation 0.00 in - - ()
Sea Level Pressure  
Sea Level Pressure 30.32 in    
Wind  
Wind Speed 1 mph (SSE)    
Max Wind Speed 8 mph    
Max Gust Speed -    
Visibility 10 miles    
Events      
Averages and records for this station are not official NWS values.
T = Trace of Precipitation, MM = Missing Value Source: NWS Daily Summary

Daily Weather History Graph

Daily Weather History Graph

Search for Another Location

Airport or City:

Trip Planner

Search our weather history database for the weather conditions in past years. The results will help you decide how hot, cold, wet, or windy it might be!

Date:

Astronomy

Jan. 01, 2014 Rise Set
Actual Time 7:23 AM EST 5:13 PM EST
Civil Twilight 6:55 AM EST 5:41 PM EST
Nautical Twilight 6:24 AM EST 6:13 PM EST
Astronomical Twilight 5:53 AM EST 6:44 PM EST
Moon 7:14 AM EST (1/1) 5:53 PM EST (1/1)
Length of Visible Light 10h 45m
Length of Day
9h 49m
New Moon, 0% of the Moon is Illuminated
Jan 1
New Moon
Jan 7
First Quarter
Jan 15
Full
Jan 24
Last Quarter
Jan 30
New

Hourly Weather History & Observations

Time (EST) Temp. Windchill Dew Point Humidity Pressure Visibility Wind Dir Wind Speed Gust Speed Precip Events Conditions
12:15 AM 34.3 °F - 32.7 °F 94% 30.38 in 10.0 mi Calm Calm - N/A   Clear
12:35 AM 33.6 °F - 32.4 °F 95% 30.37 in 10.0 mi Calm Calm - N/A   Clear
12:55 AM 34.0 °F - 32.9 °F 96% 30.37 in 10.0 mi Calm Calm - N/A   Clear
1:15 AM 33.4 °F - 32.4 °F 96% 30.36 in 10.0 mi Calm Calm - N/A   Clear
1:35 AM 32.4 °F - 32.0 °F 99% 30.37 in 10.0 mi Calm Calm - N/A   Clear
1:55 AM 32.5 °F - 32.2 °F 99% 30.37 in 10.0 mi Calm Calm - N/A   Clear
2:15 AM 33.1 °F - 32.5 °F 98% 30.37 in 10.0 mi Calm Calm - N/A   Clear
2:35 AM 32.4 °F - 32.0 °F 99% 30.37 in 10.0 mi Calm Calm - N/A   Clear
2:55 AM 33.1 °F - 32.0 °F 96% 30.37 in 10.0 mi Calm Calm - N/A   Clear
3:15 AM 33.1 °F - 32.4 °F 97% 30.38 in 10.0 mi Calm Calm - N/A   Clear
3:35 AM 33.1 °F - 32.5 °F 98% 30.37 in 10.0 mi Calm Calm - N/A   Clear
3:55 AM 33.1 °F - 32.0 °F 96% 30.37 in 10.0 mi Calm Calm - N/A   Clear
4:15 AM 32.7 °F - 32.0 °F 97% 30.38 in 10.0 mi Calm Calm - N/A   Clear
4:35 AM 32.9 °F - 32.0 °F 96% 30.37 in 10.0 mi Calm Calm - N/A   Clear
4:55 AM 32.5 °F 28.1 °F 32.0 °F 98% 30.38 in 10.0 mi South 4.6 mph - N/A   Clear
5:15 AM 33.3 °F - 32.9 °F 99% 30.37 in 10.0 mi Calm Calm - N/A   Clear
5:35 AM 33.8 °F - 32.9 °F 96% 30.38 in 10.0 mi Calm Calm - N/A   Clear
5:55 AM 33.3 °F - 32.5 °F 97% 30.38 in 10.0 mi Calm Calm - N/A   Clear
6:15 AM 34.0 °F - 32.7 °F 95% 30.38 in 10.0 mi Calm Calm - N/A   Clear
6:35 AM 33.8 °F - 32.5 °F 95% 30.38 in 10.0 mi Calm Calm - N/A   Clear
6:55 AM 33.1 °F - 32.5 °F 98% 30.39 in 10.0 mi Calm Calm - N/A   Clear
7:15 AM 33.4 °F - 32.9 °F 98% 30.40 in 10.0 mi Calm Calm - N/A   Clear
7:35 AM 33.4 °F - 33.1 °F 99% 30.40 in 10.0 mi Calm Calm - N/A   Clear
7:55 AM 34.0 °F - 33.3 °F 97% 30.40 in 10.0 mi Calm Calm - N/A   Clear
8:15 AM 34.2 °F - 33.3 °F 97% 30.41 in 10.0 mi Calm Calm - N/A   Clear
8:35 AM 34.7 °F - 33.8 °F 97% 30.41 in 10.0 mi Calm Calm - N/A   Clear
8:55 AM 35.6 °F - 34.7 °F 97% 30.42 in 10.0 mi Calm Calm - N/A   Clear
9:15 AM 36.9 °F - 34.9 °F 93% 30.43 in 10.0 mi Calm Calm - N/A   Clear
9:35 AM 38.1 °F - 34.9 °F 88% 30.44 in 10.0 mi Calm Calm - N/A   Clear
9:55 AM 41.0 °F 39.0 °F 32.7 °F 72% 30.43 in 10.0 mi East 3.5 mph - N/A   Clear
10:15 AM 44.1 °F 40.8 °F 27.0 °F 51% 30.43 in 10.0 mi ESE 5.8 mph - N/A   Clear
10:35 AM 45.9 °F 42.9 °F 25.9 °F 46% 30.42 in 10.0 mi ESE 5.8 mph - N/A   Clear
10:55 AM 46.8 °F - 21.7 °F 37% 30.40 in 10.0 mi ESE 8.1 mph - N/A   Clear
11:15 AM 48.6 °F - 21.2 °F 34% 30.40 in 10.0 mi East 8.1 mph - N/A   Clear
11:35 AM 48.7 °F - 21.4 °F 34% 30.38 in 10.0 mi ESE 8.1 mph - N/A   Clear
11:55 AM 48.6 °F - 21.2 °F 34% 30.36 in 10.0 mi SSE 3.5 mph - N/A   Clear
12:15 PM 49.3 °F - 21.4 °F 33% 30.36 in 10.0 mi Calm Calm - N/A   Clear
12:35 PM 49.3 °F - 21.9 °F 34% 30.35 in 10.0 mi SSE 3.5 mph - N/A   Clear
12:55 PM 49.5 °F - 22.3 °F 34% 30.34 in 10.0 mi SSE 4.6 mph - N/A   Clear
1:15 PM 49.5 °F - 21.6 °F 33% 30.34 in 10.0 mi SSW 4.6 mph - N/A   Clear
1:35 PM 49.6 °F - 20.7 °F 32% 30.33 in 10.0 mi South 4.6 mph - N/A   Clear
1:55 PM 50.0 °F - 22.8 °F 34% 30.32 in 10.0 mi Calm Calm - N/A   Clear
2:15 PM 50.0 °F - 23.5 °F 36% 30.31 in 10.0 mi South 3.5 mph - N/A   Clear
2:35 PM 50.0 °F - 23.7 °F 36% 30.30 in 10.0 mi South 3.5 mph - N/A   Clear
2:55 PM 50.0 °F - 23.0 °F 35% 30.30 in 10.0 mi South 3.5 mph - N/A   Clear
3:15 PM 49.8 °F - 23.7 °F 36% 30.29 in 10.0 mi Calm Calm - N/A   Clear
3:35 PM 49.6 °F - 24.3 °F 37% 30.29 in 10.0 mi Calm Calm - N/A   Clear
3:55 PM 49.5 °F - 26.4 °F 41% 30.28 in 10.0 mi Calm Calm - N/A   Clear
4:15 PM 49.1 °F - 27.3 °F 43% 30.28 in 10.0 mi Calm Calm - N/A   Clear
4:35 PM 48.6 °F - 27.7 °F 44% 30.27 in 10.0 mi Calm Calm - N/A   Clear
4:55 PM 48.2 °F - 28.2 °F 46% 30.27 in 10.0 mi Calm Calm - N/A   Clear
5:15 PM 47.5 °F - 29.3 °F 49% 30.27 in 10.0 mi Calm Calm - N/A   Scattered Clouds
5:35 PM 45.9 °F - 32.4 °F 59% 30.26 in 10.0 mi Calm Calm - N/A   Clear
5:55 PM 45.0 °F - 32.0 °F 60% 30.26 in 10.0 mi Calm Calm - N/A   Scattered Clouds
6:15 PM 44.6 °F - 34.2 °F 67% 30.25 in 10.0 mi Calm Calm - N/A   Scattered Clouds
6:35 PM 43.9 °F - 35.1 °F 71% 30.27 in 10.0 mi Calm Calm - N/A   Clear
6:55 PM 44.1 °F - 35.2 °F 71% 30.25 in 10.0 mi Calm Calm - N/A   Mostly Cloudy
7:15 PM 44.2 °F - 36.3 °F 74% 30.25 in 10.0 mi Calm Calm - N/A   Overcast
7:35 PM 43.7 °F - 36.3 °F 75% 30.26 in 10.0 mi Calm Calm - N/A   Overcast
7:55 PM 43.9 °F - 38.1 °F 80% 30.25 in 10.0 mi Calm Calm - N/A   Overcast
8:15 PM 43.9 °F - 35.8 °F 73% 30.24 in 10.0 mi Calm Calm - N/A   Overcast
8:35 PM 44.1 °F - 36.3 °F 74% 30.24 in 10.0 mi Calm Calm - N/A   Overcast
8:55 PM 44.4 °F - 36.3 °F 73% 30.23 in 10.0 mi Calm Calm - N/A   Overcast
9:15 PM 44.2 °F - 37.2 °F 76% 30.22 in 10.0 mi Calm Calm - N/A   Overcast
9:35 PM 44.2 °F - 37.6 °F 77% 30.21 in 10.0 mi Calm Calm - N/A   Overcast
9:55 PM 44.6 °F - 37.6 °F 76% 30.20 in 10.0 mi Calm Calm - N/A   Overcast
10:15 PM 45.1 °F - 37.6 °F 75% 30.19 in 10.0 mi Calm Calm - N/A   Overcast
10:35 PM 44.6 °F - 37.6 °F 76% 30.18 in 10.0 mi Calm Calm - N/A   Overcast
10:55 PM 44.8 °F - 37.9 °F 77% 30.19 in 10.0 mi Calm Calm - N/A   Overcast
11:15 PM 44.8 °F - 37.2 °F 75% 30.17 in 10.0 mi Calm Calm - N/A   Overcast
11:35 PM 44.6 °F - 38.5 °F 79% 30.16 in 10.0 mi Calm Calm - N/A   Overcast
11:55 PM 44.6 °F - 39.2 °F 81% 30.16 in 10.0 mi Calm Calm - N/A   Overcast